Wind_Speed
31 31 31 32 32 32 33 33 32 33 34 34 34 33 34 33 33 33 32 32 32 33 33 33 34 34 34 35 35 35 35 36 36 36 36 36 36 35 35 34 34 34 35 35 36 37 38 39 40 41 42 44 45 45 46 45 45 44 43 41 40 38 37 36 35 35 35 35 35 36 36 37 38 39 39 40 40 40 40 40 41 41 42 42 41 39
32 32 32 33 33 33 33 34 33 33 33 34 34 34 34 34 34 34 33 33 33 33 33 33 34 34 35 35 35 35 35 36 36 36 37 37 37 36 36 35 35 35 34 35 35 35 36 36 37 38 39 40 41 43 44 45 45 45 45 45 44 43 42 41 40 39 39 38 38 38 38 38 39 39 40 40 41 41 40 40 40 40 40 40 39 38
33 33 33 34 34 33 33 34 34 33 33 34 34 34 34 34 34 34 34 33 33 33 33 34 34 34 35 35 35 35 35 35 36 36 36 37 36 36 36 36 35 35 35 35 34 35 35 35 35 36 36 36 37 38 38 39 40 41 42 42 43 43 43 43 42 41 39 38 38 39 39 39 39 39 39 40 40 40 40 40 39 39 38 37 37 36
32 32 33 33 34 34 33 33 34 34 34 34 34 34 34 34 34 34 33 33 33 33 34 33 33 34 34 35 35 35 35 35 35 36 36 36 36 36 36 35 35 35 35 34 34 34 34 34 34 34 34 34 34 34 34 34 35 35 35 36 36 37 37 38 37 36 33 32 34 37 39 39 39 39 39 39 39 39 39 38 38 37 36 35 35 34
30 30 31 32 32 32 32 32 33 33 34 34 34 34 34 33 33 33 33 33 33 33 33 33 33 33 33 34 34 34 34 34 35 35 35 35 35 35 35 35 34 34 34 34 34 34 34 34 34 34 34 34 34 33 33 33 32 31 31 30 29 28 28 29 29 28 27 28 32 35 37 37 37 37 37 37 37 37 37 37 36 36 35 34 33 33
29 29 30 30 30 30 30 31 32 32 32 32 32 32 32 33 33 32 32 32 32 31 32 32 32 32 32 32 32 32 32 32 32 32 33 33 33 33 33 33 33 33 33 33 33 34 34 34 34 35 35 35 34 34 34 34 33 32 31 28 26 25 25 26 26 26 26 28 31 32 33 33 33 33 33 34 34 34 34 34 34 34 34 33 33 33
28 29 29 29 29 29 29 30 30 30 30 30 31 31 31 32 31 31 31 31 30 30 30 30 30 30 29 29 29 29 29 29 29 29 29 29 29 29 30 30 30 31 31 31 32 32 33 33 34 34 35 35 35 35 35 35 34 34 33 31 30 29 29 29 29 30 31 32 32 32 31 31 31 31 31 32 32 32 33 33 33 33 33 33 34 34
28 28 28 28 29 29 28 27 27 28 28 28 29 30 31 31 30 30 30 30 29 29 29 29 29 29 28 28 28 28 28 28 28 27 27 27 27 27 27 27 27 27 28 28 29 29 30 31 31 32 33 34 34 34 35 35 35 35 35 35 34 34 34 33 34 34 35 35 35 34 34 33 33 32 33 33 33 33 33 33 33 33 34 34 34 35
27 27 27 26 26 27 27 25 25 25 26 27 27 28 29 29 29 29 29 29 29 29 29 29 30 30 29 29 29 28 28 28 27 27 27 26 26 26 25 25 25 25 25 25 26 26 27 27 28 29 30 30 31 32 32 33 33 34 34 34 35 35 35 36 36 37 37 37 37 37 36 36 36 35 35 35 35 35 35 35 35 35 35 35 36 36
26 26 25 25 25 24 25 24 24 24 25 26 26 26 26 27 28 29 30 30 30 30 30 30 31 31 32 31 31 31 30 30 29 27 26 26 25 25 25 24 24 24 24 24 24 24 25 25 25 26 26 27 28 28 29 30 30 31 31 32 33 33 34 35 36 36 37 38 38 38 38 38 38 37 37 37 37 37 37 37 37 37 37 37 37 37
24 23 23 23 23 23 23 23 24 25 26 27 27 27 26 26 27 29 31 31 32 31 31 31 32 32 33 34 33 33 33 32 31 30 28 27 26 26 26 26 25 25 25 25 25 24 24 24 25 25 25 25 26 26 26 27 28 28 29 29 30 31 32 33 34 35 36 36 37 38 38 38 38 38 38 38 38 38 38 38 38 39 39 39 39 39
21 21 20 20 21 21 21 22 24 25 26 26 26 26 26 26 28 29 30 31 32 33 33 34 34 34 34 34 34 34 33 33 32 32 31 30 29 28 28 28 28 28 28 27 27 26 26 25 25 25 25 25 25 25 25 25 26 26 26 27 27 28 29 30 31 32 33 34 35 36 36 37 37 38 38 38 38 38 39 39 39 39 40 40 40 40
18 18 18 19 19 19 20 22 23 23 23 23 24 25 27 29 30 30 31 32 32 33 34 35 35 35 34 33 32 31 31 31 32 33 33 33 33 32 32 32 32 31 31 30 30 29 27 27 26 26 26 25 25 25 25 25 25 25 25 25 25 25 26 27 28 29 30 31 32 33 34 35 35 36 37 37 38 38 38 39 39 39 40 40 41 41
17 17 18 18 18 18 19 20 22 22 22 23 25 27 30 32 32 32 33 33 33 32 33 34 33 32 31 30 29 28 28 29 31 33 34 35 36 36 36 36 35 34 33 32 32 30 29 28 27 27 26 25 25 24 24 24 24 24 24 24 24 24 24 25 26 27 27 28 29 30 31 32 33 34 35 36 36 37 37 38 38 39 39 40 40 41
16 17 17 18 18 18 18 19 20 21 22 24 27 30 32 32 31 30 30 31 31 31 31 30 30 29 27 25 24 24 25 27 29 32 35 36 37 37 37 37 37 37 35 34 33 32 29 28 28 27 26 25 24 24 23 23 23 23 23 23 23 24 25 26 26 27 27 27 28 29 29 30 31 32 33 34 34 35 36 36 37 37 38 38 39 40
17 17 18 18 19 18 18 18 20 22 24 26 28 29 30 29 29 28 28 29 29 29 28 27 27 27 25 23 21 21 23 26 29 32 35 36 36 35 36 37 38 39 37 36 34 32 30 28 28 27 27 26 25 24 23 23 23 23 23 24 25 26 27 27 27 27 27 27 28 28 28 29 30 30 31 31 32 33 33 34 34 35 36 36 37 38
18 18 19 19 19 19 19 21 23 24 26 27 28 28 28 28 28 28 28 28 28 27 25 24 24 25 25 23 21 20 22 26 30 32 32 33 33 33 34 35 37 38 38 36 35 33 30 29 28 27 27 27 26 26 25 25 25 25 26 27 27 27 27 27 26 26 26 27 27 27 27 28 28 28 29 29 30 30 31 31 32 32 33 34 34 35
20 20 20 20 20 21 22 24 25 25 26 26 27 27 27 27 27 26 25 25 25 25 24 24 24 24 24 25 23 22 24 27 30 31 30 31 32 33 32 33 35 36 36 35 34 32 31 30 29 28 28 27 27 27 27 27 27 28 28 28 27 26 25 25 24 25 25 26 26 26 26 27 27 27 27 27 28 28 28 28 29 29 30 30 31 32
23 23 22 22 22 23 24 25 25 25 25 26 26 27 26 26 25 25 24 24 25 25 25 25 25 25 25 26 25 25 26 28 30 31 31 32 33 33 31 31 31 32 32 32 32 32 32 31 31 30 29 28 28 27 27 27 28 28 27 27 26 25 23 23 23 23 24 24 25 26 26 26 26 26 26 26 26 26 26 26 26 26 27 27 28 29
25 25 25 26 26 26 26 25 25 24 24 25 25 25 25 25 25 24 24 24 24 25 25 26 27 27 27 27 27 27 28 29 30 31 32 33 32 31 29 28 27 27 27 28 29 31 32 32 32 31 30 29 28 28 28 28 28 28 27 27 26 24 23 22 22 22 22 23 24 24 25 25 25 26 26 26 26 26 25 25 25 24 25 25 26 27
26 26 27 27 26 26 25 25 24 24 24 24 25 25 25 25 25 25 25 25 25 26 26 27 27 27 28 28 29 29 31 31 31 31 31 31 30 29 27 26 26 26 27 27 28 30 31 32 33 33 32 31 30 29 29 29 29 29 28 27 26 24 22 21 21 21 21 21 21 21 22 22 23 24 24 25 25 25 24 24 24 23 24 24 24 25
26 27 27 27 26 24 24 24 24 24 25 25 25 25 25 26 26 26 26 27 27 27 27 27 28 29 30 31 31 32 32 30 29 28 28 29 29 29 27 26 26 27 27 27 28 28 29 31 32 33 33 32 31 31 30 30 30 29 28 27 26 24 22 21 21 21 20 20 20 20 20 20 21 21 22 23 23 23 23 23 23 23 23 23 23 24
26 26 25 25 24 24 24 25 26 26 27 27 27 27 27 27 28 29 28 28 28 29 30 30 31 32 33 33 33 32 31 30 29 27 26 27 28 28 26 25 25 26 26 27 27 27 27 28 29 32 33 33 33 32 31 30 30 29 28 27 25 24 22 21 21 21 21 21 22 22 22 21 21 21 21 22 22 23 23 23 23 23 23 23 23 23
25 24 23 24 24 24 25 26 27 28 28 29 29 29 30 30 30 30 30 30 30 31 32 32 33 33 33 32 31 29 28 27 26 25 24 25 27 27 25 25 25 26 26 26 27 27 27 27 28 30 32 33 33 32 31 31 30 29 27 26 25 23 22 21 21 21 21 22 22 23 23 23 22 22 22 22 22 22 23 23 23 23 24 24 24 23
23 23 24 25 25 25 26 27 27 28 28 28 28 29 28 28 28 28 28 28 29 29 29 28 28 29 28 27 26 24 24 24 24 24 24 25 25 26 25 25 26 26 27 27 27 27 27 28 29 31 31 31 31 31 31 30 29 28 26 24 23 22 22 21 21 21 21 22 22 23 23 22 22 23 23 23 23 23 23 23 23 24 24 24 24 24
23 23 24 24 25 25 25 26 26 26 26 26 26 26 25 25 25 26 26 26 26 25 24 24 24 25 25 24 23 23 22 22 23 23 24 24 25 26 26 26 26 26 27 28 27 27 28 28 29 29 30 29 29 30 30 29 27 25 24 23 22 22 21 21 21 22 22 23 24 24 23 23 23 23 23 23 23 23 23 24 24 24 25 25 26 26
21 22 22 23 23 24 24 24 24 23 23 23 22 22 22 22 23 23 23 23 23 22 21 21 22 23 24 23 22 22 22 22 22 22 22 23 24 26 25 25 25 26 27 28 28 27 27 27 28 29 29 29 30 30 30 28 26 24 23 22 22 22 22 22 23 25 26 27 28 28 27 26 25 25 24 24 24 24 25 25 26 26 27 28 29 29
20 21 21 21 22 22 22 22 22 22 21 21 20 20 20 20 20 21 21 22 21 21 20 20 21 22 22 22 22 22 23 22 21 20 20 21 22 23 24 24 24 25 27 28 29 29 28 28 28 28 28 29 29 30 29 28 27 26 25 25 25 25 26 28 29 31 31 32 32 32 30 29 29 28 28 27 27 28 28 29 29 30 30 30 30 30
19 20 20 20 21 21 21 21 21 21 21 21 20 20 19 19 18 19 19 20 20 20 20 20 20 21 21 22 23 24 23 22 20 19 19 21 23 24 24 24 24 25 26 28 30 31 29 28 27 26 26 27 27 28 29 30 30 30 31 31 32 33 33 34 35 35 34 33 31 30 28 27 27 28 29 29 30 30 30 30 31 31 31 30 29 29
19 19 19 19 20 20 21 21 21 21 21 21 20 19 19 18 17 17 18 18 18 18 19 19 19 20 21 22 24 24 22 20 19 19 21 22 24 25 25 24 24 25 26 27 29 30 30 28 26 24 24 25 26 28 30 32 33 34 35 36 36 36 36 35 34 33 32 30 28 27 25 24 24 24 25 26 27 28 28 28 28 28 28 28 28 28
20 20 20 20 20 21 21 21 21 21 20 20 19 18 17 17 16 16 17 17 17 18 19 19 20 20 21 21 22 22 22 22 22 22 23 23 23 24 24 25 26 28 28 27 26 27 29 30 29 26 25 25 27 29 31 33 33 34 35 35 35 35 34 34 33 31 31 30 28 27 26 25 23 23 23 23 23 24 24 25 25 25 25 26 27 27
21 21 21 21 21 21 21 21 20 20 19 18 18 17 16 16 16 16 16 17 17 18 19 21 22 22 22 22 22 22 24 25 25 24 23 23 24 26 27 27 28 29 29 27 25 25 27 29 30 31 29 29 29 31 32 32 32 32 32 32 32 33 33 32 32 31 30 30 30 29 28 27 26 25 24 24 23 23 23 23 23 23 24 25 26 27
22 22 22 21 21 21 20 20 20 19 19 18 18 18 18 18 17 18 18 18 18 19 20 21 23 24 24 24 24 25 27 26 26 24 23 24 27 28 29 28 28 28 28 27 27 27 28 29 31 33 33 32 31 31 31 31 31 30 30 30 31 32 32 32 31 31 31 31 31 30 30 29 29 28 27 26 26 25 25 24 24 24 24 25 26 27
22 22 21 21 20 20 19 19 19 19 19 19 19 19 20 20 20 20 20 20 20 20 20 21 22 23 24 25 26 28 29 28 26 25 25 26 27 28 29 28 27 27 28 28 27 27 28 30 31 31 31 32 32 30 29 29 29 29 29 30 31 32 32 32 31 31 32 32 32 32 31 31 30 30 29 28 27 27 26 25 25 25 25 26 27 28
21 21 21 20 20 19 19 19 19 19 20 20 20 20 20 21 21 21 21 21 20 20 20 20 20 21 23 24 27 29 30 29 27 26 25 25 26 27 28 28 27 27 27 27 27 27 28 29 30 30 31 32 32 30 29 28 27 28 29 30 31 32 32 33 33 33 33 33 33 33 32 32 31 31 30 29 28 27 26 25 25 25 25 26 27 28
21 20 20 20 20 20 20 20 20 20 20 20 20 21 21 21 21 21 21 21 21 20 20 20 20 20 21 23 25 27 28 28 26 25 24 24 24 25 26 28 27 26 26 26 26 26 27 28 29 29 31 31 31 31 30 28 27 27 29 30 32 33 34 34 35 35 35 35 35 34 33 33 32 32 31 30 29 28 27 26 25 24 24 25 26 27
20 19 20 20 20 20 21 20 20 20 21 21 21 21 21 21 22 22 22 22 22 22 22 21 21 21 21 22 24 25 26 26 25 23 22 21 21 22 24 26 26 26 25 26 26 27 27 28 30 30 30 29 29 29 29 29 28 28 28 29 31 32 33 35 35 35 35 35 35 35 34 34 33 33 32 31 30 29 28 27 26 25 25 24 25 26
19 19 20 20 21 21 21 21 21 21 21 21 21 22 22 22 22 23 23 24 24 24 24 24 24 23 23 23 24 24 25 24 23 22 21 20 20 21 22 24 25 24 24 25 26 27 27 28 29 30 30 29 29 29 29 29 30 31 31 31 32 32 33 34 34 34 34 35 35 35 35 34 33 33 32 32 30 30 29 28 27 26 25 25 25 25
20 20 20 20 21 21 22 22 22 22 22 22 22 22 23 23 23 24 24 25 25 25 25 25 25 25 25 25 25 25 25 24 24 23 21 21 20 21 21 23 24 24 24 24 25 26 27 28 28 28 29 30 31 31 31 31 31 31 33 34 35 35 34 32 31 32 33 34 35 35 35 34 33 33 33 32 31 30 30 30 29 28 27 26 26 25
19 20 20 21 21 21 22 22 22 22 22 22 22 23 23 24 24 24 24 25 25 25 26 26 26 26 26 27 27 26 26 25 24 24 23 22 22 21 22 23 23 24 24 24 24 25 27 28 28 29 30 31 33 34 35 35 35 33 32 34 34 34 34 32 32 32 33 33 34 35 34 34 33 33 32 32 31 31 31 31 30 29 28 28 27 27
19 20 21 21 21 21 22 22 23 23 23 23 23 23 24 24 25 25 25 25 25 25 26 26 27 27 27 27 27 27 27 26 25 25 24 23 23 22 22 23 23 24 24 24 25 26 27 28 29 30 31 32 33 34 35 35 35 33 31 32 34 36 37 36 35 34 33 33 33 33 33 33 33 33 32 32 32 32 31 31 30 30 29 28 28 28
20 20 21 21 22 22 22 23 23 23 23 23 24 24 24 24 25 25 25 26 26 26 26 26 27 27 28 27 27 27 27 27 27 26 25 25 24 23 23 23 23 23 24 25 26 27 27 28 29 30 31 32 32 33 35 36 36 34 32 33 35 37 38 37 35 33 31 31 31 31 31 31 32 32 33 33 32 31 30 30 30 30 29 29 29 29
20 21 21 21 22 23 23 23 24 23 23 23 24 24 24 24 25 25 25 26 26 26 26 26 27 28 29 29 29 29 28 28 28 28 27 26 25 24 23 23 23 23 23 24 26 27 27 27 28 29 30 31 32 33 35 37 37 36 34 34 34 34 34 35 35 32 30 31 31 31 31 31 31 32 32 32 32 31 31 30 30 30 30 29 29 29
21 21 21 22 23 23 24 24 24 23 24 24 24 24 24 24 24 25 25 26 26 26 26 27 28 29 30 31 31 31 30 29 28 28 28 27 26 25 24 24 23 23 23 24 25 27 27 28 29 29 30 31 32 33 35 36 37 36 35 35 34 34 34 36 35 33 32 32 31 31 31 30 30 31 31 31 32 31 31 31 30 30 30 29 29 29
22 22 23 23 24 24 24 24 24 24 24 24 24 24 24 24 24 25 25 26 26 27 27 27 28 29 30 31 32 32 32 31 30 29 28 28 27 26 25 25 24 24 24 24 25 26 27 29 30 31 31 32 33 34 35 36 37 38 38 37 35 35 35 35 34 33 32 32 32 31 30 30 29 30 30 31 31 30 30 30 30 30 29 29 29 29
23 24 24 25 25 25 25 24 24 24 24 24 24 25 25 25 25 25 25 26 26 27 27 27 27 28 29 30 31 32 33 33 32 31 30 29 28 28 27 26 26 26 26 26 26 27 28 29 30 31 32 33 34 35 36 35 36 37 37 36 35 35 34 34 33 33 33 32 32 31 30 29 28 29 30 31 31 30 30 29 29 29 29 29 28 29
24 25 25 25 26 25 25 25 25 25 25 25 25 25 25 25 26 26 26 26 26 26 27 27 27 27 28 29 30 30 31 33 34 33 32 31 30 29 28 28 28 28 28 28 29 29 30 30 30 31 31 33 35 36 36 35 34 35 35 35 35 34 34 35 34 32 32 31 31 31 30 29 29 30 30 31 31 31 31 30 30 30 30 29 29 29
24 25 25 26 26 25 25 25 25 25 25 26 26 25 25 26 26 26 26 26 26 26 27 27 27 28 29 30 29 29 30 31 32 33 33 32 32 31 31 30 30 30 30 30 31 31 31 31 31 30 30 31 33 35 35 34 33 33 33 33 33 33 34 34 34 33 32 31 31 31 30 29 29 30 30 31 32 33 33 32 32 31 31 30 30 29
24 25 25 26 25 25 25 24 24 25 25 26 26 26 26 26 26 26 26 27 27 27 27 27 27 28 29 30 30 30 30 30 31 32 33 33 33 33 32 32 32 31 32 32 33 33 33 33 32 32 31 30 30 32 33 33 33 32 32 32 32 33 34 35 34 33 32 32 32 32 31 30 30 30 30 31 32 34 34 34 34 33 33 32 31 30
24 25 25 25 25 24 24 24 24 25 25 26 27 27 27 27 27 27 26 27 27 27 27 27 28 29 30 30 31 31 30 30 31 32 33 33 32 32 32 32 32 33 33 34 33 32 31 31 32 32 31 29 28 29 30 32 32 32 32 33 33 33 34 35 35 34 33 33 32 32 32 32 32 32 31 32 33 35 36 37 37 36 34 33 32 31
25 25 25 25 25 24 24 24 24 25 25 26 27 28 28 28 28 28 27 27 27 27 27 28 28 29 30 30 30 30 30 30 31 32 33 32 32 31 32 32 33 33 33 33 32 31 29 28 29 30 30 28 27 26 27 29 30 32 33 34 34 34 34 34 34 34 34 33 33 33 33 33 33 33 33 32 32 34 36 37 38 37 35 34 32 32
Wind_Direction
298 298 298 298 299 299 299 299 299 299 299 299 298 298 297 297 296 296 296 296 295 295 294 293 292 291 291 290 290 290 290 290 291 290 291 291 291 291 292 292 292 292 291 290 288 287 285 284 283 282 281 280 279 279 278 277 275 274 272 270 269 268 267 267 267 268 268 269 269 269 269 270 271 271 271 270 268 267 266 266 266 266 266 267 266 265
298 299 299 299 299 300 300 300 300 300 300 300 300 299 299 298 298 297 297 296 296 295 295 294 292 292 291 290 290 289 289 289 289 289 289 290 290 290 291 291 292 292 292 291 291 290 290 289 288 287 286 285 284 283 283 283 282 281 279 277 275 273 272 271 271 272 272 272 271 271 271 271 272 272 272 271 270 268 266 265 265 265 266 266 266 266
300 300 300 300 300 301 301 301 301 301 301 301 301 301 300 300 299 299 298 298 297 296 295 294 293 292 291 290 289 289 289 289 289 289 289 289 289 290 290 290 291 291 291 291 291 291 291 291 291 290 290 290 289 289 289 288 288 288 288 287 286 284 282 280 279 278 277 275 274 274 275 274 274 273 273 273 272 270 268 267 266 266 267 269 269 269
300 301 301 301 301 302 302 303 303 303 303 303 303 302 302 301 301 300 300 299 298 296 295 294 293 292 291 290 290 289 289 289 289 288 288 288 289 289 289 289 289 289 289 289 288 289 289 289 289 289 289 289 290 290 290 291 291 292 293 294 294 293 292 290 288 284 280 277 277 279 280 279 277 275 274 274 273 272 270 269 268 268 270 271 272 272
300 300 300 301 302 303 304 304 305 305 306 306 305 305 304 304 304 303 302 300 299 298 296 295 294 293 292 292 291 291 290 290 289 289 289 289 289 289 288 288 287 287 286 286 286 286 285 285 285 285 285 285 285 286 286 287 288 289 290 292 293 293 292 290 287 283 279 278 280 283 283 281 279 277 276 274 274 273 273 272 271 270 271 271 272 271
299 299 300 301 303 304 305 306 306 307 308 308 308 308 308 308 307 307 305 304 302 301 300 299 297 296 296 295 295 294 293 292 292 292 291 291 291 290 289 288 287 286 285 284 284 283 283 282 282 281 281 281 281 281 281 281 282 282 282 281 280 279 278 277 276 274 274 277 280 281 281 279 278 276 275 274 273 273 273 273 272 271 271 270 269 269
298 299 300 302 303 305 307 308 309 309 311 311 311 311 312 312 312 312 311 310 308 306 305 304 303 302 301 300 299 298 297 296 295 295 295 295 294 293 292 290 288 286 284 283 282 281 281 280 280 279 279 278 278 278 277 277 277 277 276 274 273 271 270 269 269 270 273 275 277 277 276 275 273 272 271 271 270 271 271 271 270 270 269 268 267 266
299 300 302 304 305 307 309 310 311 312 313 314 316 317 317 317 318 317 317 316 314 313 312 311 309 308 307 306 305 304 303 302 301 301 300 300 299 298 297 294 292 289 286 284 282 281 280 280 279 279 278 278 277 277 276 276 275 275 274 274 273 272 271 270 270 271 273 274 274 274 273 271 270 269 268 268 267 267 267 267 267 266 266 265 264 264
300 303 305 307 308 311 312 313 313 314 316 319 321 323 323 323 322 322 321 321 320 319 319 317 316 314 313 312 311 310 309 308 307 307 306 306 306 304 303 301 299 296 293 290 287 284 283 282 281 281 280 280 279 278 277 276 275 275 274 273 273 272 272 271 271 271 272 272 272 272 271 270 269 268 267 266 266 265 264 264 264 263 263 262 262 262
303 306 309 310 312 313 315 316 316 317 320 323 325 327 327 327 326 325 324 323 322 322 322 322 321 319 318 317 317 316 315 313 312 311 311 310 310 309 307 306 304 302 300 298 296 293 291 289 287 286 285 284 283 282 280 279 277 276 275 273 272 271 271 270 270 270 270 270 270 270 270 270 269 268 267 266 265 264 263 263 262 262 261 261 261 261
311 312 315 316 317 317 319 319 320 321 324 325 326 327 328 328 328 328 326 324 323 323 323 323 322 321 320 320 320 319 318 317 315 314 313 311 310 309 307 305 304 303 302 301 300 299 297 296 294 292 290 288 287 286 285 283 282 280 278 277 275 273 272 271 271 270 270 270 270 270 270 269 268 268 267 266 265 264 263 262 261 261 260 260 260 260
319 320 321 321 321 322 322 322 323 325 326 327 327 327 327 327 328 327 325 323 322 322 322 321 321 320 320 320 320 320 320 319 318 317 316 313 311 309 308 305 304 302 301 300 299 298 298 298 297 295 294 292 290 288 287 286 285 284 283 281 280 279 278 277 276 275 274 273 272 272 271 270 269 268 267 266 265 263 262 262 261 260 260 260 259 259
325 326 325 324 323 323 322 322 323 324 325 325 325 324 323 324 325 325 322 321 320 320 321 320 320 319 319 319 320 321 321 320 319 318 317 316 314 313 311 309 307 305 304 302 300 298 298 297 297 296 295 293 291 289 287 286 285 284 283 283 283 282 282 282 282 281 280 278 277 275 274 272 271 270 268 267 266 264 263 262 261 260 260 259 259 259
326 326 325 323 322 321 321 321 321 321 321 321 321 321 321 322 323 322 321 320 319 320 320 320 319 319 319 320 320 321 321 319 318 318 317 316 315 315 314 312 310 309 308 306 303 301 300 299 297 296 295 293 292 290 287 285 282 281 281 280 281 283 284 285 285 285 284 282 281 279 277 275 274 272 271 269 268 267 265 264 263 262 261 260 260 259
322 322 321 319 318 318 317 318 318 318 317 318 319 320 321 321 321 321 320 319 319 319 320 319 317 317 316 317 319 319 318 317 316 315 314 314 314 315 315 314 312 312 311 310 308 306 305 302 299 297 295 293 292 290 288 285 282 280 280 280 282 285 287 288 289 288 287 285 283 281 279 277 276 275 273 272 271 270 269 267 266 264 263 262 261 260
318 318 317 315 315 314 314 314 315 315 315 316 318 319 320 320 320 319 318 317 318 318 318 317 316 315 313 314 315 316 315 313 312 311 312 312 312 313 315 314 313 313 313 312 311 310 309 306 302 299 297 295 293 291 289 287 285 284 284 285 287 289 291 291 291 289 287 285 283 281 279 278 277 276 275 274 274 273 272 271 269 268 266 265 264 263
314 314 314 313 313 313 313 312 313 314 315 316 317 318 318 318 318 317 317 316 316 316 314 313 312 312 312 312 312 312 312 311 310 309 309 309 309 311 313 312 311 311 313 313 313 312 312 309 306 304 302 300 298 296 294 292 290 290 290 291 293 293 294 293 291 288 286 283 281 279 278 277 276 276 276 275 275 274 273 273 272 270 269 268 266 265
312 313 313 312 312 311 312 313 314 315 316 316 317 317 316 316 315 315 314 314 313 312 310 309 308 307 307 308 309 309 309 308 308 307 307 305 306 307 309 309 308 308 310 311 312 312 312 310 309 308 307 305 303 302 300 298 297 297 296 297 297 297 296 294 291 288 285 282 279 277 276 275 275 274 275 275 274 274 274 273 272 271 270 269 268 266
311 311 312 311 311 311 311 312 313 314 315 315 315 315 314 313 312 311 311 310 309 308 306 305 303 302 302 302 304 305 305 305 305 305 305 303 303 305 306 306 305 304 305 306 308 310 310 310 310 310 309 308 307 306 305 304 303 302 302 302 302 301 299 296 292 289 286 283 280 277 275 274 273 273 273 273 273 273 273 272 272 271 270 269 268 267
309 309 309 309 309 310 310 310 311 311 312 311 311 311 310 309 308 308 307 307 305 303 302 301 300 300 300 300 300 301 302 302 303 303 303 301 301 303 304 303 302 300 300 300 303 305 307 308 309 310 310 310 309 308 308 307 307 307 306 306 306 304 301 297 293 290 288 286 284 281 277 275 274 273 272 272 273 273 273 272 272 271 271 270 269 269
307 306 306 307 307 308 308 308 308 308 307 306 306 306 306 305 305 305 304 303 302 300 299 298 297 297 297 297 297 298 299 301 302 302 302 300 299 300 303 303 301 300 299 298 299 301 302 304 306 308 309 309 309 309 309 308 308 308 308 308 307 305 301 296 292 289 288 288 287 285 283 280 278 275 273 272 272 272 272 272 272 272 272 272 272 272
304 304 304 304 305 305 305 304 303 303 303 302 302 302 302 302 302 301 301 300 299 298 297 295 294 294 294 294 295 297 299 301 301 300 300 299 298 299 303 303 302 299 297 297 298 299 300 301 304 306 308 308 308 308 308 307 307 307 308 308 307 305 301 295 290 287 286 287 288 289 289 287 284 281 277 274 273 272 271 271 271 272 273 274 276 276
302 303 303 303 303 303 302 301 301 302 302 301 301 300 300 300 299 298 298 298 297 296 295 294 293 294 294 295 297 299 301 302 301 300 298 296 296 299 302 302 300 298 296 297 299 299 299 299 300 303 305 305 306 306 306 306 307 307 307 307 306 304 300 296 291 287 284 285 286 288 289 289 288 285 281 278 275 273 272 271 272 272 273 275 277 278
303 303 303 303 303 302 302 302 302 303 304 303 303 302 301 300 299 298 297 297 296 296 296 296 296 297 297 299 300 301 302 303 302 300 296 294 294 297 300 301 300 298 297 298 299 299 298 297 298 299 301 303 304 305 305 306 306 306 306 305 303 302 300 297 294 291 288 287 287 288 289 289 288 286 283 279 276 274 273 272 272 273 274 275 276 278
304 303 303 304 304 304 304 304 304 304 305 304 304 303 303 302 301 300 299 299 299 299 299 299 299 299 300 301 302 301 301 302 302 300 296 294 294 296 299 301 301 299 299 300 301 300 299 299 300 301 301 302 302 303 304 305 305 305 304 302 301 300 299 299 297 295 293 291 290 289 289 288 287 284 281 279 276 274 273 272 272 273 273 274 275 276
306 306 306 307 307 306 306 305 305 305 305 305 304 304 304 304 303 302 302 302 302 302 302 301 300 299 300 301 301 301 302 303 303 302 299 298 297 298 301 304 304 303 302 303 303 303 302 301 301 301 301 300 299 300 302 304 304 303 302 300 298 297 296 295 294 293 291 290 289 288 286 285 283 281 279 276 274 273 272 272 273 273 274 274 275 275
311 311 311 310 310 309 308 308 308 308 308 307 307 307 306 305 304 302 301 303 304 303 302 301 300 299 301 302 302 302 303 304 304 303 303 301 299 299 301 304 305 305 304 303 303 302 301 300 299 299 299 299 300 302 304 305 304 302 299 297 294 292 290 288 287 287 288 289 289 287 285 283 280 278 277 274 271 269 269 269 271 272 273 274 275 276
317 316 315 314 313 313 312 312 312 312 312 311 310 309 307 305 303 301 301 303 304 303 301 300 300 300 301 301 301 302 303 304 304 305 304 300 297 297 299 302 303 302 303 302 301 300 300 299 299 300 300 302 304 305 305 303 301 298 295 292 290 288 286 286 286 288 289 290 291 289 287 283 278 275 273 271 269 268 268 268 269 270 272 274 276 276
320 319 318 317 317 316 316 316 316 316 315 314 313 311 309 306 302 300 301 303 303 302 301 301 300 300 300 300 302 303 303 304 305 305 302 297 295 295 299 301 302 302 303 303 303 303 301 300 300 301 301 302 302 302 301 299 297 295 294 293 291 291 290 291 292 293 294 294 294 293 290 285 280 275 271 270 269 270 270 270 270 271 273 275 276 276
323 322 321 321 321 320 320 320 319 318 317 316 314 312 309 305 302 300 299 299 299 300 302 302 300 299 300 302 303 303 302 303 305 304 302 301 300 300 302 302 300 300 302 305 307 306 303 301 299 298 298 299 298 298 297 297 297 297 297 297 298 298 299 300 301 301 301 301 300 299 296 292 287 281 277 274 272 271 271 272 272 273 275 275 275 274
326 325 325 324 323 323 322 321 320 319 318 316 314 311 308 305 302 299 297 295 295 297 299 299 298 298 298 300 301 300 298 300 303 305 305 306 303 301 300 298 297 297 299 302 305 305 303 302 301 299 298 297 296 296 297 298 299 300 301 302 303 304 306 307 307 307 306 304 303 302 300 297 294 290 285 281 277 275 273 272 272 273 273 273 273 272
326 326 325 325 324 323 322 321 320 319 318 317 316 314 312 309 307 304 301 298 297 296 296 296 296 296 295 294 292 290 291 295 300 303 304 301 297 294 294 294 295 296 297 297 297 296 297 298 299 300 300 298 297 297 299 300 301 302 303 303 304 305 308 308 308 306 306 305 304 303 301 299 296 293 290 287 283 280 277 274 272 271 271 270 270 269
326 325 324 323 322 322 321 321 321 321 322 322 321 321 319 318 316 314 311 308 305 303 300 298 297 296 295 293 290 289 289 293 297 300 298 295 292 292 294 295 296 297 298 297 295 292 290 292 295 299 300 300 299 300 301 302 303 302 302 302 302 303 306 306 305 304 304 304 304 303 302 300 298 296 293 290 286 283 280 277 273 270 268 267 267 267
325 324 322 321 320 320 321 322 324 325 326 327 326 326 325 323 322 320 318 316 313 310 307 304 302 300 299 296 294 293 294 297 300 301 299 296 295 295 297 297 297 297 298 298 297 294 292 292 294 297 299 301 301 300 300 301 301 301 301 300 300 301 303 303 303 302 302 302 302 302 302 301 300 298 296 294 290 287 284 280 276 272 268 265 264 264
323 322 321 321 321 322 324 326 328 329 330 330 329 328 327 326 324 323 321 319 317 315 312 309 306 304 302 299 297 297 299 302 305 305 303 301 299 298 298 297 296 297 297 297 297 296 294 294 295 296 298 299 299 299 298 299 299 300 300 300 300 300 301 301 301 301 301 301 301 301 302 302 301 301 300 298 296 293 290 285 281 275 270 265 262 262
320 320 322 324 326 328 330 331 332 332 332 331 331 330 328 327 325 324 322 321 319 317 315 312 310 307 304 302 300 300 302 305 308 308 307 304 302 300 298 297 297 297 297 296 295 295 294 294 295 295 296 296 297 298 300 301 301 300 300 300 300 301 301 302 302 302 302 302 302 302 303 302 302 302 302 302 302 300 297 293 287 282 276 270 264 261
322 323 326 329 331 333 334 335 334 334 334 333 332 331 330 328 326 325 323 322 321 320 319 317 314 312 309 307 305 304 306 308 310 310 309 307 304 301 298 298 298 298 296 295 294 294 294 294 295 296 295 294 294 296 299 302 301 300 298 298 299 300 300 301 302 303 303 303 303 304 303 303 302 302 302 303 303 301 298 295 292 287 282 276 270 264
328 330 332 334 335 336 337 337 336 336 336 335 333 332 330 328 327 326 324 323 323 322 322 321 319 317 315 313 312 311 312 313 314 315 314 311 308 304 301 300 300 300 298 295 294 293 293 292 293 294 295 294 294 295 297 298 298 298 297 297 297 297 297 299 301 302 302 302 303 303 302 301 301 300 300 300 300 298 296 294 292 290 287 283 278 272
334 335 336 337 337 337 337 337 337 336 336 334 333 331 330 328 327 326 325 325 325 324 324 323 322 321 319 318 317 317 317 318 319 319 318 316 314 310 307 304 303 303 302 299 296 293 291 289 289 289 291 293 294 295 295 295 295 295 297 299 299 298 298 298 298 298 298 298 298 299 299 299 298 298 297 298 297 296 294 294 293 292 290 287 284 280
337 338 339 339 338 337 337 336 336 335 334 333 332 331 330 329 328 327 326 326 325 325 325 325 324 323 322 321 320 320 320 321 322 322 321 320 318 315 312 309 306 305 305 302 297 293 290 288 287 287 288 289 291 293 295 295 295 296 297 298 297 297 298 297 296 294 294 294 295 296 297 297 297 296 296 296 295 294 293 293 293 292 290 288 286 283
339 339 340 339 338 337 336 335 335 334 333 333 332 331 330 329 328 328 327 326 327 327 327 327 326 324 323 322 321 321 321 322 322 323 323 322 321 319 315 312 309 307 305 301 298 294 292 290 289 289 290 290 291 293 294 295 296 296 295 294 293 295 297 297 296 295 295 295 295 296 296 296 295 295 293 293 292 291 290 289 289 289 288 286 284 281
341 341 340 338 337 336 334 334 333 332 332 331 330 329 329 329 329 328 328 328 328 329 329 329 328 326 324 323 323 322 322 322 323 324 324 324 323 321 317 314 311 308 305 302 299 297 296 294 292 292 292 292 292 292 293 295 296 295 293 291 293 295 298 298 297 296 294 294 294 293 292 291 291 291 290 289 288 288 287 286 284 283 282 281 280 279
341 340 339 337 336 334 333 332 331 331 330 329 328 327 328 329 329 330 329 329 330 330 331 330 329 328 327 326 325 324 324 323 323 323 324 324 324 322 320 317 314 311 308 304 301 300 299 298 295 293 294 294 293 291 291 293 295 295 292 291 291 292 291 294 295 295 292 291 290 290 289 288 288 288 288 288 287 286 285 283 281 279 278 276 275 275
341 339 337 335 333 331 330 330 330 330 329 328 328 327 328 329 331 331 331 331 331 331 331 331 330 328 327 325 325 325 324 323 323 323 323 324 325 324 322 319 317 314 311 306 303 302 302 301 299 298 298 297 294 292 291 291 293 294 293 293 291 288 286 289 293 294 292 291 290 289 289 289 289 289 289 288 287 286 285 283 281 279 277 276 274 272
341 339 336 333 330 328 329 330 330 330 330 329 329 329 330 331 333 333 333 332 332 332 331 330 328 325 322 321 323 324 323 324 323 323 324 325 325 325 324 321 319 317 314 311 308 305 303 302 302 303 303 300 296 292 290 291 292 294 296 296 294 291 289 291 293 292 291 292 293 293 293 294 293 291 290 288 287 286 285 284 282 280 278 276 274 272
341 338 335 332 330 330 331 331 332 333 332 332 332 331 332 334 335 335 334 332 330 329 328 326 323 319 317 318 320 322 323 324 324 325 325 325 325 326 325 323 321 319 317 314 313 311 308 306 305 305 305 301 298 295 293 292 292 294 297 298 297 294 292 292 292 292 292 292 294 296 297 297 294 290 287 287 287 286 285 283 281 279 278 275 273 271
340 337 336 333 332 332 333 334 335 335 335 334 334 333 334 335 336 335 333 331 328 326 324 323 321 318 316 317 318 319 320 321 323 325 325 327 327 327 326 325 323 322 319 317 315 314 312 311 309 307 304 299 296 295 296 296 294 294 295 297 297 296 294 293 294 295 295 293 293 295 297 296 291 288 287 288 287 286 285 283 281 279 278 276 273 270
339 337 336 335 334 335 335 336 336 335 335 334 333 333 334 335 334 331 329 328 327 325 323 322 321 319 318 319 319 318 318 318 320 322 325 327 328 329 327 326 324 323 321 319 317 315 314 313 311 308 304 298 294 294 296 298 298 296 296 297 296 295 294 295 296 297 296 294 294 295 295 292 288 286 287 287 287 286 285 284 282 280 278 276 273 270
339 337 336 335 335 335 336 336 335 334 334 334 333 332 332 334 332 330 327 327 326 324 323 321 320 318 318 318 319 320 319 318 319 321 322 324 326 327 327 326 325 323 321 320 318 317 316 314 312 310 306 300 295 294 296 299 300 300 298 297 295 294 294 296 297 298 297 296 296 297 296 293 290 288 286 284 284 284 285 285 284 282 279 277 274 271
339 338 337 336 335 334 334 334 333 333 332 333 333 332 331 331 331 330 328 327 325 324 323 322 320 319 318 318 320 321 320 319 319 319 320 322 323 324 323 324 324 323 321 320 318 316 314 312 311 309 306 301 297 295 295 298 300 301 299 297 295 294 294 295 297 298 298 297 297 296 295 294 292 290 285 282 281 282 284 285 284 283 281 279 277 274
340 338 337 336 334 333 332 332 332 332 332 332 332 332 331 331 331 330 329 328 326 325 324 324 322 320 319 319 320 321 320 319 318 318 319 321 321 320 320 321 321 321 319 317 315 312 310 308 307 306 304 302 299 296 294 295 296 297 296 296 295 295 293 293 295 297 297 296 295 294 292 290 288 286 282 279 277 278 280 282 283 284 283 282 279 277
Height
1470 1469 1469 1468 1468 1467 1466 1465 1465 1465 1463 1462 1462 1461 1460 1460 1459 1458 1457 1457 1456 1454 1453 1452 1451 1451 1450 1449 1448 1448 1447 1446 1445 1444 1444 1443 1442 1442 1441 1441 1440 1439 1439 1438 1438 1437 1436 1436 1436 1436 1435 1435 1435 1435 1435 1435 1435 1435 1436 1436 1436 1436 1436 1436 1436 1436 1436 1436 1436 1436 1436 1436 1437 1437 1437 1437 1437 1437 1436 1436 1436 1436 1436 1436 1437 1437
1467 1467 1466 1466 1465 1465 1463 1462 1462 1462 1461 1459 1458 1458 1457 1456 1456 1455 1454 1454 1453 1452 1451 1450 1449 1448 1447 1446 1445 1445 1444 1443 1442 1442 1441 1440 1440 1439 1438 1438 1437 1437 1436 1436 1435 1434 1434 1433 1433 1432 1432 1431 1431 1431 1431 1430 1430 1430 1430 1431 1431 1431 1431 1431 1431 1432 1432 1432 1432 1432 1432 1433 1433 1433 1434 1434 1434 1434 1433 1433 1433 1433 1433 1433 1434 1434
1466 1465 1463 1462 1462 1462 1461 1459 1459 1459 1458 1457 1456 1455 1454 1454 1452 1452 1451 1451 1450 1449 1448 1447 1446 1445 1444 1443 1442 1442 1441 1441 1440 1439 1438 1437 1437 1436 1436 1435 1435 1434 1433 1433 1432 1432 1431 1431 1430 1430 1429 1428 1428 1427 1427 1426 1426 1426 1426 1426 1426 1426 1426 1426 1426 1427 1427 1427 1427 1427 1428 1428 1429 1429 1430 1430 1430 1430 1430 1430 1430 1430 1430 1430 1431 1431
1464 1462 1461 1460 1460 1459 1458 1457 1456 1455 1455 1454 1453 1451 1451 1451 1450 1449 1448 1447 1446 1446 1445 1444 1443 1442 1441 1440 1439 1439 1438 1438 1437 1436 1436 1435 1434 1434 1433 1433 1432 1431 1431 1430 1430 1429 1429 1428 1427 1427 1426 1426 1426 1425 1424 1424 1423 1423 1423 1422 1422 1421 1421 1421 1421 1422 1422 1422 1422 1422 1423 1424 1424 1425 1426 1426 1426 1426 1426 1426 1426 1426 1427 1427 1428 1428
1462 1461 1459 1458 1457 1456 1455 1454 1453 1452 1451 1451 1450 1449 1448 1447 1447 1446 1445 1445 1444 1442 1441 1441 1440 1439 1438 1437 1436 1436 1436 1435 1434 1434 1433 1432 1432 1431 1431 1430 1429 1429 1428 1427 1427 1426 1426 1425 1425 1424 1424 1423 1423 1423 1422 1422 1421 1421 1421 1421 1420 1420 1420 1419 1419 1419 1419 1419 1419 1419 1419 1419 1420 1421 1421 1422 1423 1423 1423 1423 1423 1423 1424 1424 1425 1426
1460 1459 1457 1456 1455 1454 1453 1452 1451 1450 1449 1448 1447 1446 1446 1445 1444 1443 1442 1441 1441 1440 1439 1438 1437 1436 1436 1435 1434 1433 1433 1432 1432 1431 1431 1430 1429 1429 1428 1427 1426 1426 1425 1425 1424 1423 1423 1422 1422 1421 1421 1421 1420 1420 1420 1419 1419 1419 1419 1419 1419 1418 1418 1417 1417 1417 1417 1416 1416 1416 1416 1416 1417 1417 1418 1419 1419 1420 1420 1420 1420 1420 1420 1421 1422 1422
1457 1456 1456 1455 1453 1452 1452 1451 1449 1448 1448 1446 1445 1444 1444 1443 1442 1441 1440 1439 1438 1437 1436 1435 1435 1434 1433 1433 1432 1431 1431 1430 1429 1429 1428 1428 1427 1426 1426 1425 1424 1423 1422 1422 1421 1421 1420 1419 1419 1418 1418 1417 1417 1417 1417 1416 1416 1416 1416 1416 1416 1416 1415 1415 1415 1414 1414 1414 1414 1414 1414 1414 1414 1415 1415 1416 1416 1416 1416 1416 1416 1417 1417 1418 1418 1419
1456 1455 1454 1453 1452 1451 1450 1449 1448 1447 1446 1445 1444 1442 1441 1441 1440 1439 1437 1436 1436 1435 1434 1433 1432 1432 1431 1431 1430 1429 1428 1428 1427 1427 1426 1426 1425 1424 1424 1423 1422 1421 1420 1419 1418 1418 1417 1416 1416 1415 1415 1415 1414 1414 1414 1414 1413 1413 1413 1413 1413 1413 1412 1412 1412 1411 1411 1411 1411 1411 1411 1411 1412 1412 1412 1412 1412 1413 1413 1413 1413 1414 1414 1415 1415 1416
1454 1453 1452 1451 1451 1450 1448 1447 1447 1446 1445 1444 1443 1441 1440 1439 1437 1436 1436 1435 1434 1433 1432 1431 1430 1429 1429 1428 1428 1427 1426 1426 1426 1425 1425 1424 1423 1422 1422 1421 1420 1419 1418 1417 1416 1416 1415 1414 1413 1413 1412 1412 1411 1411 1411 1411 1411 1410 1410 1410 1410 1410 1410 1409 1409 1409 1408 1408 1408 1408 1408 1409 1409 1409 1409 1409 1409 1409 1410 1410 1410 1411 1411 1411 1411 1412
1453 1452 1451 1450 1449 1449 1448 1446 1445 1444 1444 1443 1442 1441 1440 1438 1436 1434 1433 1432 1432 1431 1430 1429 1428 1427 1426 1426 1426 1425 1424 1424 1424 1424 1423 1422 1422 1421 1420 1419 1418 1417 1416 1416 1415 1414 1413 1412 1411 1411 1410 1409 1409 1409 1408 1408 1408 1407 1407 1407 1407 1407 1406 1406 1406 1406 1405 1405 1405 1405 1405 1405 1406 1406 1406 1406 1406 1406 1406 1406 1407 1407 1407 1408 1408 1409
1451 1451 1450 1449 1448 1447 1446 1445 1444 1442 1442 1441 1440 1439 1438 1437 1436 1434 1431 1430 1429 1429 1428 1428 1427 1426 1425 1423 1423 1423 1422 1421 1421 1421 1421 1421 1420 1419 1418 1417 1416 1416 1415 1414 1413 1412 1412 1411 1410 1409 1408 1408 1407 1406 1406 1406 1405 1405 1405 1404 1404 1404 1403 1403 1403 1403 1402 1402 1402 1402 1402 1402 1402 1402 1402 1402 1402 1402 1403 1403 1404 1404 1404 1404 1405 1405
1451 1450 1449 1448 1447 1446 1445 1444 1442 1441 1441 1440 1439 1437 1436 1436 1435 1433 1431 1429 1428 1427 1426 1425 1425 1424 1424 1422 1421 1420 1420 1419 1418 1418 1418 1418 1417 1416 1416 1415 1414 1413 1412 1411 1411 1410 1410 1409 1408 1408 1407 1406 1405 1405 1404 1404 1403 1403 1402 1402 1401 1401 1401 1400 1400 1400 1399 1399 1399 1399 1399 1399 1399 1399 1399 1399 1399 1399 1399 1400 1400 1400 1401 1401 1401 1401
1450 1449 1448 1447 1446 1445 1444 1443 1441 1441 1440 1439 1438 1436 1435 1434 1433 1432 1431 1429 1427 1426 1425 1423 1422 1422 1421 1421 1420 1419 1418 1417 1416 1416 1415 1414 1414 1413 1412 1411 1410 1410 1409 1408 1407 1407 1407 1407 1406 1406 1405 1404 1404 1403 1402 1402 1401 1401 1400 1400 1400 1399 1398 1398 1397 1397 1396 1396 1396 1396 1396 1395 1395 1395 1395 1395 1396 1396 1396 1396 1396 1397 1397 1397 1397 1398
1449 1448 1447 1446 1446 1445 1443 1442 1441 1440 1439 1438 1437 1436 1434 1432 1431 1431 1429 1427 1426 1425 1424 1422 1421 1420 1420 1419 1419 1418 1417 1416 1414 1413 1413 1412 1411 1411 1410 1408 1407 1406 1406 1405 1404 1404 1404 1404 1403 1403 1402 1402 1401 1401 1400 1400 1399 1399 1398 1398 1397 1397 1396 1396 1395 1394 1394 1393 1393 1393 1392 1392 1392 1392 1392 1392 1392 1392 1392 1393 1393 1393 1394 1394 1394 1394
1449 1448 1447 1446 1445 1444 1443 1442 1441 1439 1438 1437 1436 1434 1432 1431 1431 1430 1428 1426 1425 1424 1423 1421 1420 1419 1419 1418 1418 1417 1416 1415 1413 1412 1411 1410 1409 1408 1407 1406 1404 1403 1403 1403 1401 1401 1401 1401 1401 1400 1400 1399 1399 1399 1398 1397 1397 1396 1396 1396 1395 1395 1394 1393 1392 1392 1391 1391 1391 1390 1390 1390 1389 1389 1389 1389 1389 1389 1389 1390 1390 1390 1390 1391 1391 1391
1448 1447 1446 1445 1444 1443 1442 1441 1440 1438 1437 1436 1434 1433 1432 1431 1429 1429 1428 1426 1424 1423 1422 1421 1419 1417 1417 1417 1417 1417 1416 1414 1412 1411 1410 1407 1407 1407 1406 1404 1402 1401 1401 1400 1399 1398 1398 1398 1398 1397 1396 1396 1396 1396 1396 1395 1395 1394 1394 1393 1393 1392 1391 1391 1390 1389 1389 1388 1388 1387 1387 1387 1387 1386 1386 1386 1386 1386 1386 1386 1386 1387 1387 1387 1387 1387
1447 1446 1445 1444 1443 1442 1441 1440 1438 1437 1436 1434 1433 1432 1431 1430 1429 1428 1427 1426 1424 1423 1422 1421 1420 1417 1415 1415 1416 1416 1415 1413 1411 1410 1409 1406 1405 1405 1405 1403 1400 1398 1398 1397 1396 1396 1396 1395 1395 1394 1394 1394 1393 1393 1393 1392 1392 1391 1391 1391 1390 1390 1389 1388 1387 1387 1386 1386 1385 1385 1385 1384 1384 1384 1384 1384 1383 1383 1383 1383 1384 1384 1384 1384 1384 1384
1446 1445 1444 1443 1442 1441 1439 1438 1437 1436 1435 1434 1432 1431 1431 1430 1429 1428 1426 1426 1425 1423 1422 1421 1420 1418 1416 1414 1414 1414 1414 1412 1410 1409 1407 1405 1403 1402 1403 1401 1399 1397 1396 1395 1394 1394 1393 1393 1392 1392 1391 1391 1391 1390 1390 1390 1389 1389 1388 1388 1387 1387 1386 1385 1385 1384 1384 1383 1383 1382 1382 1382 1382 1381 1381 1381 1381 1381 1381 1381 1381 1381 1381 1381 1381 1381
1444 1443 1443 1441 1440 1439 1438 1437 1436 1435 1434 1433 1431 1430 1429 1428 1428 1427 1426 1425 1424 1423 1422 1420 1419 1417 1416 1414 1413 1413 1413 1411 1409 1407 1406 1403 1401 1400 1401 1400 1397 1396 1394 1393 1392 1391 1391 1390 1390 1389 1389 1388 1388 1387 1387 1387 1386 1386 1385 1385 1384 1384 1383 1383 1382 1382 1381 1381 1381 1380 1380 1379 1379 1379 1379 1379 1378 1378 1378 1378 1378 1378 1378 1378 1378 1378
1443 1442 1441 1441 1439 1438 1437 1436 1436 1435 1434 1432 1431 1430 1429 1427 1427 1426 1425 1424 1423 1422 1421 1419 1418 1416 1415 1413 1412 1411 1411 1410 1408 1406 1404 1401 1399 1398 1398 1398 1396 1394 1393 1392 1391 1390 1389 1388 1387 1386 1386 1386 1385 1385 1384 1384 1383 1383 1383 1382 1382 1381 1381 1380 1380 1379 1379 1379 1378 1378 1377 1377 1377 1376 1376 1376 1376 1376 1376 1376 1376 1376 1376 1376 1375 1375
1442 1441 1440 1440 1438 1437 1436 1435 1434 1434 1433 1432 1431 1429 1428 1426 1426 1425 1424 1423 1421 1420 1419 1418 1416 1415 1414 1412 1411 1410 1409 1409 1407 1405 1402 1399 1397 1396 1396 1396 1394 1393 1391 1390 1389 1388 1387 1386 1385 1384 1383 1383 1383 1382 1382 1381 1381 1381 1380 1380 1379 1379 1378 1378 1378 1377 1377 1376 1376 1376 1375 1375 1375 1374 1374 1374 1374 1374 1374 1374 1374 1374 1373 1373 1373 1372
1441 1440 1439 1438 1437 1436 1435 1434 1433 1432 1431 1430 1429 1428 1426 1425 1424 1422 1421 1421 1419 1418 1417 1416 1414 1413 1412 1410 1408 1407 1408 1407 1406 1404 1401 1398 1395 1394 1395 1395 1393 1391 1390 1388 1387 1386 1385 1384 1383 1381 1381 1381 1380 1380 1380 1379 1379 1378 1378 1377 1377 1376 1376 1376 1375 1375 1375 1374 1374 1374 1373 1373 1372 1372 1372 1372 1372 1372 1372 1371 1371 1371 1371 1371 1370 1370
1440 1438 1437 1436 1436 1435 1434 1432 1431 1431 1430 1429 1428 1426 1425 1424 1423 1421 1420 1419 1417 1416 1414 1413 1411 1410 1409 1408 1406 1406 1406 1406 1405 1403 1401 1398 1394 1393 1394 1393 1392 1390 1388 1387 1386 1385 1384 1382 1381 1380 1379 1378 1378 1378 1377 1377 1376 1376 1376 1375 1375 1374 1374 1373 1373 1373 1372 1372 1372 1371 1371 1371 1371 1370 1370 1370 1370 1370 1370 1370 1369 1369 1369 1368 1368 1368
1438 1437 1436 1435 1434 1433 1432 1431 1430 1429 1428 1427 1426 1424 1423 1422 1421 1420 1418 1417 1416 1414 1412 1411 1409 1407 1406 1406 1405 1404 1404 1404 1403 1401 1400 1397 1394 1392 1392 1392 1390 1388 1386 1385 1384 1383 1382 1381 1380 1378 1377 1376 1376 1376 1375 1375 1374 1374 1373 1373 1372 1372 1371 1371 1371 1371 1370 1370 1370 1369 1369 1369 1369 1368 1368 1368 1368 1368 1367 1367 1367 1367 1366 1366 1366 1365
1436 1436 1434 1433 1432 1431 1431 1430 1428 1427 1426 1425 1424 1422 1421 1420 1419 1418 1416 1415 1414 1412 1411 1409 1407 1406 1405 1404 1404 1403 1402 1402 1401 1400 1398 1396 1393 1391 1390 1390 1388 1386 1384 1383 1382 1381 1380 1378 1377 1376 1375 1374 1374 1373 1373 1372 1372 1371 1371 1371 1370 1370 1369 1369 1369 1368 1368 1368 1368 1367 1367 1367 1366 1366 1366 1366 1366 1366 1365 1365 1365 1364 1364 1363 1363 1362
1435 1434 1433 1432 1431 1430 1429 1428 1427 1426 1425 1424 1422 1421 1420 1418 1417 1416 1415 1413 1412 1411 1410 1408 1406 1405 1404 1403 1402 1401 1401 1400 1400 1398 1397 1394 1391 1389 1388 1388 1387 1385 1382 1381 1380 1379 1378 1376 1375 1374 1373 1373 1372 1371 1371 1370 1370 1369 1369 1368 1368 1368 1367 1367 1367 1366 1366 1366 1365 1365 1364 1364 1364 1364 1363 1363 1363 1363 1363 1362 1362 1361 1361 1361 1360 1360
1434 1433 1432 1431 1430 1429 1427 1426 1426 1424 1423 1422 1421 1420 1418 1416 1415 1414 1413 1412 1411 1410 1409 1407 1406 1403 1402 1401 1401 1400 1399 1398 1397 1397 1396 1394 1391 1388 1387 1386 1386 1384 1381 1379 1378 1377 1376 1375 1373 1372 1371 1371 1370 1369 1368 1368 1367 1367 1366 1366 1366 1366 1365 1365 1364 1364 1363 1363 1362 1362 1361 1361 1361 1361 1361 1360 1360 1360 1360 1360 1359 1359 1358 1358 1357 1356
1432 1431 1430 1429 1428 1427 1426 1425 1424 1422 1421 1421 1419 1418 1417 1415 1414 1412 1411 1411 1410 1408 1407 1406 1404 1402 1401 1400 1399 1398 1397 1396 1396 1395 1394 1393 1391 1388 1386 1386 1385 1383 1381 1378 1376 1375 1375 1373 1372 1370 1369 1368 1367 1366 1366 1365 1365 1365 1364 1364 1363 1363 1362 1362 1361 1361 1360 1360 1359 1359 1358 1358 1357 1357 1357 1357 1357 1357 1356 1356 1356 1356 1356 1355 1355 1354
1431 1430 1429 1428 1426 1425 1424 1423 1422 1421 1420 1419 1417 1416 1415 1414 1413 1411 1410 1409 1408 1407 1406 1405 1404 1402 1400 1399 1397 1396 1395 1395 1395 1394 1393 1391 1389 1387 1386 1385 1384 1382 1380 1377 1374 1372 1371 1371 1370 1369 1368 1367 1366 1365 1364 1363 1362 1362 1361 1361 1360 1360 1359 1359 1358 1358 1357 1356 1356 1355 1355 1354 1354 1354 1354 1353 1353 1353 1353 1353 1353 1353 1353 1352 1352 1351
1429 1428 1427 1426 1425 1423 1422 1421 1420 1419 1418 1417 1416 1415 1414 1412 1411 1410 1409 1408 1407 1406 1405 1403 1402 1401 1400 1398 1396 1394 1394 1394 1394 1393 1391 1390 1388 1386 1384 1383 1382 1381 1380 1377 1373 1370 1368 1368 1368 1368 1367 1366 1365 1363 1362 1361 1360 1359 1358 1357 1357 1356 1356 1355 1355 1354 1353 1353 1352 1352 1351 1351 1351 1351 1351 1350 1350 1350 1350 1350 1350 1351 1350 1350 1349 1348
1427 1426 1425 1424 1423 1422 1421 1420 1418 1417 1416 1416 1414 1413 1412 1411 1410 1409 1408 1407 1406 1405 1404 1403 1401 1400 1399 1398 1396 1394 1392 1391 1392 1391 1390 1389 1387 1385 1383 1382 1381 1379 1379 1378 1376 1371 1366 1364 1364 1365 1365 1364 1362 1361 1360 1359 1358 1357 1356 1355 1354 1353 1352 1352 1351 1351 1350 1350 1349 1349 1349 1348 1348 1348 1348 1347 1347 1347 1347 1347 1348 1348 1348 1347 1346 1346
1426 1425 1423 1422 1421 1420 1419 1418 1417 1416 1415 1414 1413 1412 1411 1410 1409 1408 1407 1406 1405 1404 1403 1401 1400 1399 1398 1397 1396 1394 1391 1390 1390 1390 1389 1388 1386 1383 1382 1381 1379 1378 1377 1377 1376 1374 1369 1364 1361 1361 1362 1361 1360 1359 1358 1357 1356 1355 1354 1353 1351 1350 1350 1349 1349 1348 1347 1347 1346 1346 1346 1346 1346 1345 1345 1345 1345 1345 1345 1345 1345 1345 1345 1345 1344 1343
1424 1423 1422 1421 1420 1419 1418 1417 1416 1415 1414 1412 1411 1410 1409 1408 1407 1406 1405 1404 1403 1402 1401 1400 1399 1397 1396 1395 1394 1391 1390 1389 1389 1389 1388 1386 1384 1381 1380 1380 1378 1376 1375 1375 1374 1373 1370 1365 1361 1359 1358 1358 1357 1356 1355 1355 1354 1353 1352 1351 1350 1348 1348 1347 1347 1346 1345 1345 1344 1343 1343 1343 1342 1342 1342 1342 1341 1341 1341 1341 1342 1342 1342 1342 1341 1341
1423 1422 1421 1420 1419 1418 1417 1416 1415 1413 1412 1411 1410 1409 1408 1407 1406 1405 1404 1403 1402 1401 1400 1398 1397 1396 1394 1392 1391 1389 1387 1387 1387 1387 1386 1385 1382 1380 1378 1377 1376 1375 1373 1372 1371 1370 1368 1365 1362 1359 1356 1355 1354 1355 1354 1353 1352 1351 1351 1350 1348 1347 1346 1346 1345 1344 1343 1342 1341 1341 1340 1340 1339 1339 1338 1338 1338 1338 1338 1338 1338 1339 1339 1339 1338 1338
1422 1421 1420 1419 1418 1417 1416 1415 1413 1412 1411 1410 1409 1408 1406 1406 1404 1403 1402 1401 1400 1399 1398 1397 1396 1394 1393 1391 1389 1386 1385 1385 1385 1385 1384 1383 1381 1379 1377 1375 1374 1373 1372 1370 1369 1367 1365 1362 1361 1359 1357 1354 1352 1351 1352 1351 1351 1350 1349 1348 1346 1345 1344 1343 1343 1342 1341 1340 1339 1338 1337 1337 1336 1336 1335 1335 1335 1335 1334 1334 1335 1335 1335 1335 1335 1335
1421 1420 1418 1417 1416 1415 1414 1413 1412 1411 1410 1409 1408 1407 1406 1404 1403 1402 1401 1400 1399 1398 1396 1395 1394 1393 1391 1390 1388 1386 1384 1383 1383 1383 1382 1381 1379 1378 1376 1374 1372 1372 1371 1369 1367 1366 1364 1361 1359 1358 1356 1354 1351 1349 1348 1349 1349 1348 1346 1345 1344 1343 1342 1341 1341 1340 1338 1337 1336 1336 1335 1334 1333 1333 1332 1331 1331 1331 1331 1331 1331 1331 1331 1331 1331 1331
1419 1418 1417 1416 1415 1414 1413 1412 1411 1410 1409 1408 1407 1406 1405 1403 1402 1401 1400 1398 1397 1396 1395 1393 1392 1391 1390 1388 1386 1385 1383 1382 1381 1381 1380 1379 1378 1376 1374 1372 1371 1371 1370 1368 1366 1365 1363 1361 1358 1356 1354 1353 1351 1348 1347 1346 1346 1346 1345 1344 1342 1341 1340 1339 1338 1337 1336 1335 1334 1333 1332 1331 1331 1330 1329 1328 1328 1328 1327 1327 1327 1327 1327 1327 1327 1327
1418 1417 1416 1415 1414 1413 1412 1411 1410 1409 1408 1406 1405 1404 1403 1402 1401 1399 1398 1396 1395 1394 1392 1391 1390 1389 1388 1386 1385 1383 1381 1381 1380 1379 1378 1377 1376 1375 1373 1371 1369 1369 1368 1367 1366 1364 1362 1360 1357 1355 1352 1351 1349 1348 1347 1346 1344 1343 1342 1341 1340 1339 1338 1337 1336 1335 1334 1332 1331 1330 1329 1329 1328 1327 1326 1326 1325 1325 1324 1323 1323 1323 1323 1323 1323 1323
1417 1416 1415 1414 1413 1412 1411 1410 1409 1407 1406 1405 1404 1403 1401 1400 1399 1398 1396 1395 1393 1392 1391 1389 1388 1386 1385 1384 1382 1381 1380 1379 1378 1377 1376 1375 1374 1373 1371 1370 1368 1367 1366 1366 1364 1363 1361 1360 1357 1355 1352 1350 1347 1346 1345 1344 1343 1341 1340 1338 1337 1336 1335 1335 1334 1333 1332 1331 1329 1328 1327 1326 1326 1325 1324 1323 1322 1322 1321 1320 1320 1320 1320 1320 1319 1319
1416 1416 1414 1413 1412 1411 1410 1409 1407 1406 1405 1404 1403 1401 1400 1399 1397 1396 1395 1393 1392 1391 1389 1387 1386 1385 1383 1382 1381 1379 1378 1377 1376 1375 1374 1373 1372 1371 1370 1368 1366 1365 1364 1364 1363 1361 1360 1358 1356 1354 1352 1350 1347 1344 1342 1341 1340 1339 1338 1336 1334 1332 1332 1332 1332 1331 1330 1329 1327 1326 1325 1324 1323 1322 1321 1320 1320 1319 1318 1317 1317 1316 1317 1317 1316 1316
1416 1414 1413 1412 1411 1410 1409 1408 1406 1405 1404 1402 1401 1400 1398 1397 1396 1394 1393 1391 1390 1389 1387 1386 1385 1383 1382 1380 1379 1378 1376 1375 1374 1373 1372 1371 1370 1369 1368 1366 1365 1364 1363 1362 1361 1359 1358 1357 1355 1352 1351 1348 1346 1343 1340 1338 1338 1337 1337 1335 1332 1330 1329 1329 1328 1328 1327 1326 1325 1323 1322 1321 1320 1319 1318 1317 1317 1316 1315 1315 1314 1314 1313 1313 1313 1313
1415 1413 1412 1411 1410 1409 1408 1407 1405 1404 1402 1401 1400 1398 1397 1396 1394 1392 1391 1390 1388 1387 1386 1385 1383 1381 1380 1378 1377 1376 1375 1373 1372 1371 1370 1370 1369 1367 1366 1365 1364 1362 1361 1360 1358 1357 1356 1355 1353 1351 1349 1347 1345 1342 1338 1336 1335 1335 1335 1333 1330 1328 1326 1325 1325 1325 1324 1323 1322 1321 1320 1319 1318 1317 1316 1315 1314 1313 1312 1312 1311 1311 1311 1310 1310 1310
1414 1412 1411 1410 1409 1408 1406 1405 1404 1402 1401 1400 1398 1397 1396 1394 1393 1391 1390 1388 1387 1386 1384 1383 1381 1380 1378 1376 1375 1374 1373 1371 1371 1370 1368 1367 1367 1366 1365 1363 1362 1361 1360 1358 1356 1355 1353 1352 1351 1349 1347 1345 1343 1341 1337 1334 1332 1332 1331 1330 1329 1327 1324 1321 1321 1322 1322 1321 1319 1318 1317 1316 1315 1314 1313 1312 1311 1310 1309 1309 1308 1308 1307 1307 1307 1306
1412 1411 1410 1409 1408 1406 1405 1404 1402 1401 1400 1398 1397 1396 1395 1393 1392 1390 1389 1387 1386 1384 1383 1381 1380 1378 1376 1374 1372 1371 1370 1370 1369 1368 1367 1366 1365 1364 1363 1361 1360 1359 1358 1357 1355 1353 1351 1350 1348 1346 1345 1344 1341 1339 1336 1333 1331 1329 1328 1327 1327 1325 1323 1320 1318 1318 1318 1317 1316 1316 1315 1314 1313 1311 1310 1309 1307 1306 1306 1305 1305 1304 1304 1304 1303 1303
1411 1410 1409 1408 1406 1405 1404 1402 1401 1400 1399 1397 1396 1394 1393 1392 1391 1389 1388 1386 1384 1383 1381 1380 1378 1377 1375 1373 1371 1370 1368 1367 1366 1366 1365 1364 1363 1362 1361 1360 1358 1357 1356 1355 1353 1352 1350 1348 1346 1344 1343 1341 1339 1336 1334 1331 1329 1326 1325 1324 1323 1322 1319 1317 1316 1316 1315 1314 1313 1312 1311 1311 1310 1309 1307 1306 1304 1303 1303 1302 1301 1301 1300 1300 1300 1300
1410 1409 1408 1406 1405 1404 1402 1401 1400 1399 1397 1396 1394 1393 1392 1391 1389 1388 1386 1385 1383 1382 1381 1379 1378 1376 1374 1372 1370 1368 1367 1365 1364 1363 1363 1362 1361 1360 1359 1357 1356 1355 1354 1352 1351 1349 1348 1346 1344 1342 1340 1338 1335 1333 1331 1329 1327 1325 1322 1321 1320 1319 1317 1315 1314 1313 1312 1311 1310 1309 1309 1309 1308 1307 1305 1303 1301 1300 1300 1299 1298 1298 1297 1297 1297 1296
1410 1408 1407 1406 1404 1403 1401 1400 1399 1397 1396 1394 1393 1392 1391 1390 1388 1387 1385 1384 1382 1381 1379 1378 1376 1375 1373 1371 1369 1368 1366 1364 1362 1361 1361 1360 1359 1358 1356 1355 1354 1352 1351 1349 1348 1346 1345 1343 1342 1340 1338 1336 1332 1329 1327 1326 1325 1323 1321 1319 1318 1316 1314 1312 1311 1311 1310 1309 1308 1307 1306 1306 1306 1304 1302 1301 1299 1297 1296 1296 1295 1294 1294 1294 1293 1293
1409 1407 1406 1404 1403 1401 1400 1399 1397 1396 1395 1393 1392 1391 1390 1389 1387 1386 1384 1383 1381 1380 1378 1376 1375 1373 1371 1370 1369 1367 1366 1364 1362 1360 1359 1357 1356 1355 1354 1353 1351 1350 1348 1346 1345 1343 1341 1340 1338 1337 1336 1334 1331 1327 1324 1323 1322 1321 1319 1317 1316 1314 1312 1310 1309 1308 1308 1307 1306 1305 1305 1304 1303 1302 1301 1299 1297 1295 1293 1292 1291 1291 1291 1291 1290 1290
1407 1406 1405 1403 1401 1400 1399 1397 1396 1395 1393 1392 1391 1390 1388 1387 1386 1385 1383 1381 1380 1378 1377 1375 1374 1372 1370 1369 1367 1366 1365 1363 1361 1359 1357 1356 1355 1353 1352 1351 1349 1347 1346 1344 1342 1340 1338 1336 1334 1333 1331 1330 1328 1325 1322 1321 1320 1319 1317 1316 1314 1312 1310 1308 1306 1306 1305 1304 1303 1302 1302 1301 1301 1300 1299 1297 1295 1292 1290 1289 1288 1287 1287 1287 1287 1287
1406 1405 1403 1402 1401 1399 1398 1396 1395 1394 1392 1391 1390 1388 1387 1386 1385 1383 1382 1380 1379 1377 1376 1374 1373 1371 1369 1367 1366 1364 1363 1361 1360 1358 1356 1355 1353 1352 1350 1349 1347 1346 1343 1341 1339 1338 1336 1333 1331 1329 1328 1327 1326 1324 1321 1319 1317 1316 1315 1313 1311 1310 1308 1306 1304 1303 1303 1302 1301 1300 1299 1298 1297 1297 1296 1295 1292 1289 1287 1285 1284 1284 1284 1284 1284 1284
1405 1404 1402 1401 1400 1398 1397 1396 1394 1393 1391 1390 1389 1387 1386 1384 1383 1382 1380 1379 1377 1376 1374 1373 1371 1370 1368 1366 1364 1363 1362 1360 1358 1356 1355 1353 1352 1351 1349 1347 1346 1344 1342 1339 1337 1336 1334 1332 1329 1326 1325 1325 1324 1323 1321 1318 1316 1314 1312 1310 1309 1308 1306 1304 1302 1301 1301 1300 1299 1298 1297 1296 1295 1294 1293 1292 1290 1287 1285 1282 1280 1280 1280 1281 1281 1281